sat.trackr.live / text

‹ back to catalog

STARLINK-31032

NORAD 58535 · 2023-192E

PAYLOAD ACTIVE UNKNOWN

§ Identity

Operator
Country
US
Launch date
2023-12-08
Launch site
AFWTR
Launch vehicle
Mass (kg)
RCS (m²)

Purposes: comms

External: N2YO · Heavens-Above · Gunter

§ Orbital elements

Epoch: 2026-05-25T01:45:22.289760Z

Period
93.85 min
Inclination
53.1609°
Eccentricity
0.0001095
Mean motion
15.34388728 rev/d
Perigee alt
462.0 km
Apogee alt
463.5 km
Semi-major
6,840.9 km
B*
3.0957e-5
RAAN
66.9851°
Arg perigee
83.6146°
Mean anomaly
276.4982°
Rev number
13,769

§ Raw data

STARLINK-310321 58535U 23192E   26145.07317465  .00000670  00000+0  30957-4 0  99942 58535  53.1609  66.9851 0001095  83.6146 276.4982 15.34388728137693

JSON: /api/v1/satellites/58535 · /tle

For live sub-satellite position, see the globe view (requires WebGL).

§ Visibility from observer

Set your observer location to see the next 7 days of passes ≥ 10°. The values pass through the URL so the page stays shareable.

No JS? Fill the form by hand. The geolocation button needs JavaScript.